This is the latest recevied weather packets stored in our database for station/object W1LBM. If no packets are shown the sender has not sent any weather packets the latest 10 day(s).
| Time | Temp. | Humidity | Pressure | Rain* | Wind** | Luminosity | Snow |
|---|---|---|---|---|---|---|---|
| 1777679018 | 13.89° C | 40% | 1013 hPa | 0 mm | - | 3 W/m² | - |
| 1777678716 | 14.44° C | 39% | 1013.1 hPa | 0 mm | - | 5 W/m² | - |
| 1777678413 | 15° C | 37% | 1013 hPa | 0 mm | - | 7 W/m² | - |
| 1777678109 | 15° C | 35% | 1013 hPa | 0 mm | - | 9 W/m² | - |
| 1777677806 | 15° C | 35% | 1012.8 hPa | 0 mm | - | 12 W/m² | - |
| 1777677504 | 15.56° C | 34% | 1012.7 hPa | 0 mm | - | 14 W/m² | - |
| 1777677201 | 15.56° C | 35% | 1012.7 hPa | 0 mm | - | 17 W/m² | - |
| 1777676900 | 15.56° C | 34% | 1012.6 hPa | 0 mm | - | 19 W/m² | - |
| 1777676599 | 16.11° C | 33% | 1012.4 hPa | 0 mm | - | 22 W/m² | - |
| 1777676295 | 16.11° C | 33% | 1012.5 hPa | 0 mm | - | 27 W/m² | - |
| 1777675993 | 16.11° C | 34% | 1012.5 hPa | 0 mm | - | 30 W/m² | - |
| 1777675689 | 16.11° C | 33% | 1012.5 hPa | 0 mm | - | 35 W/m² | - |
| 1777675386 | 16.11° C | 33% | 1012.5 hPa | 0 mm | - | 30 W/m² | - |
| 1777675082 | 16.11° C | 34% | 1012.5 hPa | 0 mm | - | 29 W/m² | - |
| 1777674779 | 16.67° C | 33% | 1012.3 hPa | 0 mm | - | 32 W/m² | - |
| 1777674475 | 16.67° C | 33% | 1012.4 hPa | 0 mm | - | 48 W/m² | - |
| 1777674174 | 16.67° C | 33% | 1012.2 hPa | 0 mm | - | 53 W/m² | - |
| 1777673869 | 16.67° C | 33% | 1012.2 hPa | 0 mm | - | 49 W/m² | - |
| 1777673566 | 16.67° C | 33% | 1012.2 hPa | 0 mm | - | 46 W/m² | - |
| 1777673264 | 16.67° C | 32% | 1012.3 hPa | 0 mm | - | 35 W/m² | - |
| 1777672961 | 17.22° C | 35% | 1012.4 hPa | 0 mm | - | 56 W/m² | - |
| 1777672658 | 17.22° C | 34% | 1012.1 hPa | 0 mm | - | 54 W/m² | - |
| 1777672353 | 17.22° C | 34% | 1012.2 hPa | 0 mm | - | 67 W/m² | - |
| 1777672049 | 16.67° C | 33% | 1012.2 hPa | 0 mm | - | 137 W/m² | - |
| 1777671745 | 16.67° C | 33% | 1012.3 hPa | 0 mm | - | 106 W/m² | - |
* Rain latest hour (hover to see other rain measurements)
** Current wind speed in m/s (hover to see current wind gust speed)